GW7330 Weather Reports


time (UTC)temp
C
wind
direction
speed
KPH
gust
KPH
rain 1hr
cm
rain 24hr
cm
rain mn
cm
humidity
%
barometer
mb
20260906233535 29 290 6.4 12.9 0.00 0.00 0.00 33 1014.8
20260906232515 29 313 9.7 16.1 0.00 0.00 0.00 33 1014.8
20260906231515 30 340 9.7 20.9 0.00 0.00 0.00 32 1014.8
20260906230514 29 334 8.0 19.3 0.00 0.00 0.00 33 1014.7
20260906225515 29 334 6.4 14.5 0.00 0.00 0.00 34 1014.7
20260906224515 28 331 8.0 19.3 0.00 0.00 0.00 34 1014.8
20260906223515 28 327 4.8 9.7 0.00 0.00 0.00 35 1014.8
20260906222535 28 335 9.7 20.9 0.00 0.00 0.00 35 1014.8
20260906221515 29 336 11.3 22.5 0.00 0.00 0.00 36 1014.8
20260906221035 30 339 8.0 14.5 0.00 0.00 0.00 35 1014.7
20260906215515 30 337 6.4 12.9 0.00 0.00 0.00 33 1014.7
20260906214515 30 341 6.4 16.1 0.00 0.00 0.00 31 1014.7
20260906213515 31 334 9.7 17.7 0.00 0.00 0.00 31 1014.7
20260906212515 31 333 6.4 19.3 0.00 0.00 0.00 31 1014.9
20260906211515 30 337 4.8 12.9 0.00 0.00 0.00 32 1015.0
20260906210515 30 343 9.7 19.3 0.00 0.00 0.00 30 1015.2
20260906205515 30 328 8.0 14.5 0.00 0.00 0.00 29 1015.2
20260906204515 30 341 4.8 12.9 0.00 0.00 0.00 31 1015.3
20260906203535 30 337 8.0 16.1 0.00 0.00 0.00 32 1015.4
20260906202515 30 335 9.7 19.3 0.00 0.00 0.00 32 1015.7
20260906201514 30 343 8.0 16.1 0.00 0.00 0.00 32 1015.8
20260906200515 30 324 9.7 16.1 0.00 0.00 0.00 31 1015.9
20260906195514 30 343 8.0 12.9 0.00 0.00 0.00 31 1016.1
20260906194515 30 321 4.8 12.9 0.00 0.00 0.00 30 1016.1
20260906193514 30 331 6.4 11.3 0.00 0.00 0.00 30 1016.3
20260906192514 30 325 6.4 12.9 0.00 0.00 0.00 29 1016.4
20260906191514 31 338 6.4 12.9 0.00 0.00 0.00 27 1016.5
20260906190515 31 338 3.2 9.7 0.00 0.00 0.00 28 1016.8
20260906185514 30 292 3.2 8.0 0.00 0.00 0.00 28 1016.9
20260906184535 30 325 4.8 8.0 0.00 0.00 0.00 30 1017.1
20260906183515 30 345 3.2 12.9 0.00 0.00 0.00 32 1017.3
20260906182514 29 297 3.2 9.7 0.00 0.00 0.00 32 1017.5
20260906181514 28 245 3.2 6.4 0.00 0.00 0.00 30 1017.6
20260906180514 28 221 4.8 9.7 0.00 0.00 0.00 31 1017.8
20260906175515 28 184 1.6 3.2 0.00 0.00 0.00 32 1018.0
20260906174514 28 176 3.2 8.0 0.00 0.00 0.00 32 1018.1
20260906173514 28 156 3.2 9.7 0.00 0.00 0.00 32 1018.3
20260906172514 27 136 1.6 6.4 0.00 0.00 0.00 33 1018.3
20260906171514 27 131 6.4 12.9 0.00 0.00 0.00 36 1018.4
20260906170514 26 54 3.2 6.4 0.00 0.00 0.00 38 1018.6
20260906165515 26 140 6.4 11.3 0.00 0.00 0.00 37 1018.7
20260906164515 25 116 4.8 12.9 0.00 0.00 0.00 38 1018.8
20260906163514 25 131 4.8 14.5 0.00 0.00 0.00 39 1018.7
20260906162535 25 147 8.0 17.7 0.00 0.00 0.00 38 1018.7
20260906161534 25 146 6.4 12.9 0.00 0.00 0.00 39 1018.8
20260906160515 24 138 6.4 17.7 0.00 0.00 0.00 39 1018.8
20260906155515 24 151 9.7 19.3 0.00 0.00 0.00 38 1018.8
20260906154515 23 138 11.3 22.5 0.00 0.00 0.00 40 1018.9
20260906153515 22 121 4.8 12.9 0.00 0.00 0.00 45 1018.9
20260906152535 22 95 3.2 8.0 0.00 0.00 0.00 48 1019.0
20260906151535 21 32 1.6 9.7 0.00 0.00 0.00 48 1019.0
20260906150515 21 124 4.8 14.5 0.00 0.00 0.00 47 1019.1
20260906145515 22 28 4.8 17.7 0.00 0.00 0.00 46 1019.0
20260906144515 22 107 8.0 14.5 0.00 0.00 0.00 48 1019.1
20260906143515 21 102 8.0 12.9 0.00 0.00 0.00 48 1019.1
20260906142515 19 52 4.8 14.5 0.00 0.00 0.00 53 1019.2
20260906141515 18 0 0.0 3.2 0.00 0.00 0.00 57 1019.2
20260906140515 17 6 3.2 8.0 0.00 0.00 0.00 58 1019.1
20260906135535 16 116 0.0 6.4 0.00 0.00 0.00 60 1018.9
20260906134515 16 0.0 0.0 0.00 0.00 0.00 60 1018.8
20260906133515 16 0.0 0.0 0.00 0.00 0.00 60 1018.8
20260906132515 16 0.0 0.0 0.00 0.00 0.00 58 1018.7
20260906131535 16 0.0 0.0 0.00 0.00 0.00 59 1018.6
20260906130515 16 0.0 0.0 0.00 0.00 0.00 60 1018.6
20260906125515 16 164 1.6 6.4 0.00 0.00 0.00 61 1018.5
20260906124515 16 126 1.6 3.2 0.00 0.00 0.00 62 1018.5
20260906123515 15 0.0 0.0 0.00 0.00 0.00 62 1018.4
20260906122535 15 0.0 0.0 0.00 0.00 0.00 64 1018.3
20260906121515 15 0.0 0.0 0.00 0.00 0.00 66 1018.3
20260906120515 15 0.0 0.0 0.00 0.00 0.00 66 1018.3
20260906115515 15 0.0 0.0 0.00 0.00 0.00 66 1018.2
20260906114515 15 0.0 0.0 0.00 0.00 0.00 63 1018.2
20260906113515 15 0.0 0.0 0.00 0.00 0.00 62 1018.1
20260906112515 15 0.0 0.0 0.00 0.00 0.00 64 1018.2
20260906111515 15 0.0 0.0 0.00 0.00 0.00 66 1018.0
20260906110515 15 0.0 0.0 0.00 0.00 0.00 69 1018.0
20260906105515 15 0.0 0.0 0.00 0.00 0.00 69 1018.1
20260906104515 15 0.0 0.0 0.00 0.00 0.00 68 1017.9
20260906103515 15 0.0 0.0 0.00 0.00 0.00 67 1017.9
20260906102535 15 0.0 0.0 0.00 0.00 0.00 66 1017.7
20260906101515 15 0.0 0.0 0.00 0.00 0.00 65 1017.7
20260906100515 15 0.0 0.0 0.00 0.00 0.00 65 1017.7
20260906095515 15 124 0.0 1.6 0.00 0.00 0.00 64 1017.5
20260906094515 15 0.0 0.0 0.00 0.00 0.00 68 1017.5
20260906093515 15 0.0 0.0 0.00 0.00 0.00 70 1017.6
20260906092515 15 0.0 0.0 0.00 0.00 0.00 69 1017.5
20260906091535 15 0.0 0.0 0.00 0.00 0.00 70 1017.6
20260906090515 15 0.0 0.0 0.00 0.00 0.00 69 1017.7
20260906085515 15 0.0 0.0 0.00 0.00 0.00 69 1017.6
20260906084515 15 0.0 0.0 0.00 0.00 0.00 68 1017.8
20260906083515 15 0.0 0.0 0.00 0.00 0.00 67 1017.6
20260906082515 15 0.0 0.0 0.00 0.00 0.00 66 1017.6
20260906081515 16 0.0 0.0 0.00 0.00 0.00 65 1017.8
20260906080515 16 0.0 0.0 0.00 0.00 0.00 63 1017.6
20260906075515 16 0.0 0.0 0.00 0.00 0.00 62 1017.6
20260906074515 16 0.0 0.0 0.00 0.00 0.00 60 1017.4
20260906074015 16 0.0 0.0 0.00 0.00 0.00 60 1017.4
20260906072515 17 0.0 0.0 0.00 0.00 0.00 59 1017.3
20260906071515 17 0.0 0.0 0.00 0.00 0.00 56 1017.4
20260906070515 17 0.0 0.0 0.00 0.00 0.00 55 1017.6
20260906065515 18 333 0.0 1.6 0.00 0.00 0.00 53 1017.6
20260906064535 18 0.0 0.0 0.00 0.00 0.00 49 1017.5
20260906063515 18 333 0.0 1.6 0.00 0.00 0.00 49 1017.5
20260906062515 18 333 0.0 1.6 0.00 0.00 0.00 49 1017.3
20260906061515 18 333 1.6 3.2 0.00 0.00 0.00 50 1017.2
20260906060515 17 333 0.0 1.6 0.00 0.00 0.00 53 1017.2
20260906055514 17 0.0 0.0 0.00 0.00 0.00 54 1017.1
20260906054515 18 0.0 0.0 0.00 0.00 0.00 55 1017.2
20260906053535 18 0.0 0.0 0.00 0.00 0.00 53 1017.2
20260906052514 18 0.0 0.0 0.00 0.00 0.00 53 1017.2
20260906051555 18 0.0 0.0 0.00 0.00 0.00 52 1017.2
20260906050555 18 0.0 0.0 0.00 0.00 0.00 51 1017.2
20260906045535 18 333 0.0 3.2 0.00 0.00 0.00 52 1017.1
20260906044515 19 333 0.0 3.2 0.00 0.00 0.00 52 1017.0
20260906043515 19 0.0 0.0 0.00 0.00 0.00 52 1017.0
20260906042515 20 0.0 0.0 0.00 0.00 0.00 52 1016.9
20260906041516 20 0.0 0.0 0.00 0.00 0.00 50 1016.8
20260906040535 20 0.0 0.0 0.00 0.00 0.00 51 1016.7
20260906035515 21 0.0 0.0 0.00 0.00 0.00 49 1016.7
20260906034515 21 0.0 0.0 0.00 0.00 0.00 50 1016.6
20260906033515 22 0.0 0.0 0.00 0.00 0.00 49 1016.5
20260906032515 22 333 0.0 1.6 0.00 0.00 0.00 47 1016.5
20260906031515 23 0.0 0.0 0.00 0.00 0.00 48 1016.3
20260906030515 23 0.0 0.0 0.00 0.00 0.00 44 1016.1
20260906025515 24 0.0 0.0 0.00 0.00 0.00 43 1016.0
20260906024515 25 333 0.0 1.6 0.00 0.00 0.00 42 1015.8
20260906023515 25 333 0.0 1.6 0.00 0.00 0.00 42 1015.7
20260906022555 26 0.0 0.0 0.00 0.00 0.00 39 1015.5
20260906021515 26 333 1.6 6.4 0.00 0.00 0.00 38 1015.4
20260906020515 26 0.0 0.0 0.00 0.00 0.00 39 1015.4
20260906015535 27 0.0 0.0 0.00 0.00 0.00 42 1015.3
20260906014535 28 331 0.0 1.6 0.00 0.00 0.00 40 1015.3
20260906013515 29 0.0 0.0 0.00 0.00 0.00 38 1015.3
20260906012515 30 331 0.0 3.2 0.00 0.00 0.00 37 1015.2
20260906011515 30 330 1.6 8.0 0.00 0.00 0.00 34 1015.2
20260906010535 31 327 0.0 1.6 0.00 0.00 0.00 34 1015.3
20260906005515 31 353 3.2 8.0 0.00 0.00 0.00 32 1015.3
20260906004515 31 344 4.8 8.0 0.00 0.00 0.00 32 1015.4
20260906003515 31 342 4.8 11.3 0.00 0.00 0.00 32 1015.3
20260906002515 31 337 6.4 11.3 0.00 0.00 0.00 32 1015.4
20260906001516 31 350 4.8 11.3 0.00 0.00 0.00 32 1015.4
20260906000516 31 342 4.8 12.9 0.00 0.00 0.00 33 1015.4
20260905235515 31 350 3.2 8.0 0.00 0.00 0.00 33 1015.4
20260905234535 31 349 6.4 16.1 0.00 0.00 0.00 31 1015.4